Location: Kumla
(59.1265°N, 15.1401°E)
Time: 23:18:02
(UTC+01:00)

Vanguard 1 - Pass Details

Date: 03 December 2023
Orbit: 653 x 3825 km, 34.3° (Epoch: 04 March)

Event Time Altitude Azimuth Distance (km) Brightness Sun altitude
Rises 17:15:47 0° 198° (SSW) 6,076 14.7 -14.7°
Reaches altitude 10° 17:20:50 10° 184° (S) 5,558 14.2 -15.3°
Maximum altitude 17:32:39 22° 142° (SE) 5,460 13.6 -16.8°
Enters shadow 17:45:33 12° 106° (ESE) 6,724 13.8 -18.4°
